Regional Weather Roundup
Issued by NWS

Home | Current Version | Previous Version | Text Only | Print | Product List | Glossary On
Versions: 1 2 3 4 5 6 7 8 9 10 11 12 13 14 15 16 17 18 19 20 21 22 23 24 25 26 27 28 29 30 31 32 33 34 35 36 37 38 39 40 41 42 43 44 45 46 47 48 49 50
000
ASUS43 KOAX 180610
RWRNE

WEATHER ROUNDUP FOR NEBRASKA
NATIONAL WEATHER SERVICE OMAHA NE
1200 AM CST THU JAN 18 2018

NOTES: SATELLITE DATA IS BEING USED TO AUGMENT CLOUD COVER ABOVE
       12000 FEET.
       "FAIR" INDICATES FEW OR NO CLOUDS BELOW 12,000 FEET WITH NO
       SIGNIFICANT WEATHER AND/OR OBSTRUCTIONS TO VISIBILITY.


NEZ001>004-019>022-054>056-180700-
NEBRASKA PANHANDLE

CITY           SKY/WX    TMP DP  RH WIND       PRES   REMARKS
SCOTTSBLUFF    CLEAR     15  12  88 N6        30.18R WCI   6
6HR MIN TEMP:  15; 6HR MAX TEMP:  36;

ALLIANCE       CLEAR     15  14  95 W7        30.16R WCI   5
6HR MIN TEMP:  11; 6HR MAX TEMP:  28;

CHADRON        CLEAR     26  21  81 SW10      30.13F WCI  16
6HR MIN TEMP:  22; 6HR MAX TEMP:  35;

GORDON         FAIR      31  21  67 SW12      30.12F WCI  22
6HR MIN TEMP:  22; 6HR MAX TEMP:  33;

KIMBALL        CLEAR     23  19  83 W7        30.19S WCI  15
SIDNEY         CLEAR     25  20  81 W10       30.19S WCI  15
6HR MIN TEMP:  17; 6HR MAX TEMP:  32;

$$

NEZ057>060-069>072-079>082-180700-
SOUTHWEST NEBRASKA

CITY           SKY/WX    TMP DP  RH WIND       PRES   REMARKS
NORTH PLATTE   CLEAR     16  11  80 NW3       30.19F
6HR MIN TEMP:  15; 6HR MAX TEMP:  31;

IMPERIAL       CLEAR     20  16  84 W7        30.19F WCI  11
6HR MIN TEMP:  20; 6HR MAX TEMP:  34;

LEXINGTON      CLEAR     19  14  79 CALM      30.19F
MCCOOK         CLEAR     18  14  84 W5        30.21F WCI  11
6HR MIN TEMP:  18; 6HR MAX TEMP:  35;

OGALLALA       CLEAR     21  18  88 W5        30.19S WCI  15
$$

NEZ005>010-023>029-035>040-094-180700-
NORTH CENTRAL NEBRASKA

CITY           SKY/WX    TMP DP  RH WIND       PRES   REMARKS
VALENTINE      CLEAR     21  18  88 SW7       30.13F WCI  12
6HR MIN TEMP:  21; 6HR MAX TEMP:  32;

AINSWORTH      CLEAR     25  22  87 W8        30.14S WCI  16
BROKEN BOW     CLEAR     25  15  66 CALM      30.16F
6HR MIN TEMP:  14; 6HR MAX TEMP:  30;

O`NEILL        CLEAR     20  18  91 CALM      30.16R
ORD            CLEAR     23  15  71 W5        30.17F WCI  17
6HR MIN TEMP:  22; 6HR MAX TEMP:  30;

THEDFORD       CLEAR     26  20  81 SW6       30.16F WCI  19
$$

NEZ041-046>049-061>064-073>077-083>087-180700-
SOUTH CENTRAL NEBRASKA

CITY           SKY/WX    TMP DP  RH WIND       PRES   REMARKS
GRAND ISLAND   CLOUDY    19  13  77 SW7       30.21F WCI  10
6HR MIN TEMP:  19; 6HR MAX TEMP:  26;

AURORA         CLOUDY    20  13  74 SW12      30.22F WCI   8
HASTINGS       CLOUDY    20  12  71 SW6       30.22F WCI  12
6HR MIN TEMP:  20; 6HR MAX TEMP:  29;

HEBRON         CLOUDY    22  11  63 SW8       30.27F WCI  13
HOLDREGE       CLOUDY    22  15  74 SW8       30.20F WCI  12
KEARNEY        CLOUDY    20  13  74 SW10      30.21F WCI   9
YORK           CLOUDY    16  14  93 SW10      30.24F WCI   3
$$

NEZ011>018-030>034-042>045-180700-
NORTHEAST NEBRASKA

CITY           SKY/WX    TMP DP  RH WIND       PRES   REMARKS
NORFOLK        CLOUDY    22  15  75 SW13      30.18F WCI  10
6HR MIN TEMP:  20; 6HR MAX TEMP:  27;

ALBION         CLOUDY    25  17  71 W8        30.20S WCI  16
BLAIR          CLOUDY    23  14  69 SW15      30.24F WCI  10
COLUMBUS       CLOUDY    22  14  71 SW7       30.23F WCI  13
FREMONT        CLOUDY    21  14  73 S9        30.25F WCI  11
TEKAMAH        CLOUDY    16  10  77 SE9       30.24F WCI   4
6HR MIN TEMP:  15; 6HR MAX TEMP:  26;

WAYNE          CLOUDY    21  15  77 SW8       30.17F WCI  11
$$

NEZ050>053-065>068-078-088>093-180700-
SOUTHEAST NEBRASKA

CITY           SKY/WX    TMP DP  RH WIND       PRES   REMARKS
LINCOLN        CLOUDY    21  11  65 SW7       30.28F WCI  12
6HR MIN TEMP:  17; 6HR MAX TEMP:  24;

OMAHA EPPLEY   CLOUDY    15   9  76 SE9       30.28F WCI   3
6HR MIN TEMP:  14; 6HR MAX TEMP:  24;

BEATRICE       CLOUDY    20  11  68 S7        30.29F WCI  11
FALLS CITY     CLOUDY    19  11  70 S8        30.32F WCI   9
6HR MIN TEMP:  19; 6HR MAX TEMP:  24;

NEBRASKA CITY  CLOUDY    20  13  74 SW13      30.29F WCI   7
PLATTSMOUTH    CLOUDY    17  11  78 S12       30.27F WCI   4
$$

NEZ044-045-051>053-067-180700-
OMAHA AREA

CITY           SKY/WX    TMP DP  RH WIND       PRES   REMARKS
OMAHA EPPLEY   CLOUDY    15   9  76 SE9       30.28F WCI   3
6HR MIN TEMP:  14; 6HR MAX TEMP:  24;

BLAIR          CLOUDY    23  14  69 SW15      30.24F WCI  10
FREMONT        CLOUDY    21  14  73 S9        30.25F WCI  11
MILLARD        CLOUDY    20  13  74 CALM      30.28S
OFFUTT AFB     CLOUDY    13   8  79 S5        30.28F WCI   6
PLATTSMOUTH    CLOUDY    17  11  78 S12       30.27F WCI   4
WAHOO          FAIR      22  13  69 SW9       30.26S WCI  12
$$



USA.gov is the U.S. government's official web portal to all federal, state and local government web resources and services.